sat.trackr.live / text

‹ back to catalog

ONEWEB-0015

NORAD 61594 · 2024-188A

PAYLOAD ACTIVE UNKNOWN

§ Identity

Operator
Country
UK
Launch date
2024-10-20
Launch site
AFWTR
Launch vehicle
Mass (kg)
RCS (m²)

Purposes: comms

External: N2YO · Heavens-Above · Gunter

§ Orbital elements

Epoch: 2026-05-25T02:45:57.720096Z

Period
109.80 min
Inclination
87.8907°
Eccentricity
0.0002339
Mean motion
13.11416974 rev/d
Perigee alt
1,215.9 km
Apogee alt
1,219.5 km
Semi-major
7,595.8 km
B*
1.2928e-3
RAAN
25.6837°
Arg perigee
85.1279°
Mean anomaly
275.0116°
Rev number
8,143

§ Raw data

ONEWEB-00151 61594U 24188A   26145.11525139  .00000471  00000+0  12928-2 0  99982 61594  87.8907  25.6837 0002339  85.1279 275.0116 13.11416974 81431

JSON: /api/v1/satellites/61594 · /tle

For live sub-satellite position, see the globe view (requires WebGL).

§ Visibility from observer

Set your observer location to see the next 7 days of passes ≥ 10°. The values pass through the URL so the page stays shareable.

No JS? Fill the form by hand. The geolocation button needs JavaScript.